Wind_Speed
10 11 13 14 15 16 17 17 19 20 22 24 26 26 27 26 27 26 28 28 29 30 32 35 36 43 48 56 55 50 49 47 44 39 44 43 53 47 52 51 47 40 41 45 40
10 10 10 11 13 14 15 16 17 18 20 21 22 24 26 26 26 27 27 27 26 27 30 34 38 40 45 53 57 53 52 46 43 40 49 47 46 50 50 53 49 42 44 44 47
7 7 7 9 11 12 14 15 17 19 20 22 23 23 24 25 26 27 27 26 25 24 27 28 35 42 47 49 58 55 54 47 48 42 46 40 48 63 47 50 49 42 46 33 43
7 6 7 8 10 11 12 14 16 18 20 21 23 23 22 22 25 26 27 26 25 23 24 24 27 34 42 48 54 53 52 50 46 42 47 41 43 61 64 45 49 46 45 39 38
7 6 7 8 9 9 9 10 12 15 18 19 21 23 23 22 21 24 25 24 25 24 21 22 24 30 35 43 51 51 51 51 49 46 44 44 49 48 71 50 48 52 47 47 41
7 8 9 10 10 10 10 11 11 13 15 18 20 21 23 24 23 23 23 24 24 24 24 23 22 24 30 40 50 52 51 53 53 51 48 46 45 51 44 62 49 56 47 51 47
12 10 11 12 13 12 12 10 10 12 14 16 18 20 22 23 24 25 27 24 24 25 26 25 23 23 27 34 44 49 51 52 50 51 52 52 42 42 48 52 64 58 60 49 52
13 12 15 14 13 13 13 13 13 13 14 15 16 17 19 22 25 28 27 26 26 26 26 27 27 27 29 32 35 40 45 48 48 48 49 47 42 40 44 49 56 64 68 57 55
11 13 14 16 17 15 14 15 14 14 15 17 17 16 16 18 23 27 29 27 26 27 28 29 29 30 30 32 34 35 37 40 42 45 46 46 48 43 45 49 43 69 65 72 59
11 14 14 15 18 18 17 16 16 16 17 18 18 17 17 17 22 22 27 31 30 29 29 29 29 30 32 32 34 36 37 38 39 42 42 42 46 45 45 47 45 48 63 64 69
18 16 14 12 13 17 19 18 18 18 19 19 19 19 19 19 20 19 21 25 29 29 30 30 30 32 34 34 34 36 37 39 40 42 43 43 43 44 43 46 46 48 52 50 78
22 20 18 14 12 13 14 16 19 21 21 21 20 21 22 22 21 20 21 23 23 25 27 28 29 32 35 37 36 36 39 41 42 43 45 44 43 45 45 45 49 51 53 56 56
24 21 18 17 14 14 15 15 17 20 21 21 21 21 20 20 19 18 20 22 23 25 27 27 28 29 30 32 34 36 39 41 43 44 47 49 47 46 47 48 51 53 53 53 56
27 26 22 18 16 15 15 15 16 17 18 18 18 20 20 18 20 20 22 23 24 24 25 24 25 25 26 27 31 32 37 40 42 44 45 47 52 49 48 48 52 54 57 56 57
30 26 24 22 20 17 16 16 16 16 18 18 20 21 21 21 20 23 22 24 24 24 22 24 22 21 23 26 29 31 34 36 38 40 45 43 51 53 52 51 52 53 56 60 61
29 27 25 24 23 23 22 20 19 18 17 19 19 20 19 20 23 22 21 23 22 23 19 19 21 22 23 24 27 29 31 33 37 37 42 41 44 48 50 51 56 57 59 63 63
27 27 26 25 23 24 24 23 23 22 23 22 21 20 19 20 23 24 26 24 23 24 19 18 20 22 22 23 27 25 25 31 34 35 35 41 47 46 51 51 52 57 61 64 68
27 27 27 26 25 23 23 23 23 24 24 24 24 25 24 25 26 27 26 25 23 23 22 19 19 21 21 25 25 22 23 26 35 35 35 38 45 49 53 56 57 59 59 62 66
27 27 27 27 25 24 23 23 24 25 24 23 24 23 24 25 25 23 26 26 24 23 24 25 19 18 18 23 25 24 20 25 31 35 38 39 41 49 45 50 49 48 47 52 61
27 29 28 28 28 29 27 25 24 24 25 25 25 24 24 24 25 25 24 26 25 24 22 24 25 17 18 22 24 22 23 27 33 38 43 39 41 42 24 21 25 25 27 33 43
26 27 29 30 30 29 29 27 27 26 27 27 26 26 24 25 25 25 24 26 25 25 24 25 26 17 19 21 21 21 23 28 33 36 41 44 40 30 22 21 22 23 29 30 33
27 26 27 28 30 31 32 31 30 29 30 29 27 27 27 27 26 26 25 26 27 25 26 26 28 21 20 21 20 22 23 27 32 35 39 39 21 20 21 23 26 25 28 26 26
29 29 27 27 28 30 33 34 33 31 31 32 31 30 28 28 29 25 25 26 26 27 28 27 27 25 22 22 23 23 22 26 32 35 35 35 26 22 18 25 29 28 26 29 32
29 30 31 29 29 32 33 32 34 35 31 32 32 33 32 32 31 28 26 28 28 28 28 29 24 25 25 21 24 25 22 26 33 34 36 27 28 15 20 28 29 28 27 31 35
30 30 33 34 36 37 36 37 37 37 35 34 32 33 34 33 34 32 30 29 29 30 29 29 25 25 25 24 26 28 23 25 29 32 36 20 22 14 17 19 22 26 29 25 31
35 35 35 38 41 39 40 40 41 39 37 33 35 34 36 36 37 34 36 30 28 29 32 28 27 26 23 25 28 28 25 29 28 28 28 25 23 21 19 18 21 24 29 26 26
36 37 37 38 39 40 40 39 41 41 38 38 39 39 37 39 38 37 36 33 30 29 28 30 28 26 23 25 32 26 25 28 27 26 28 23 24 20 13 15 16 18 25 29 21
Wind_Direction
272 266 264 264 265 267 268 270 270 270 268 266 264 264 264 264 266 267 264 264 266 264 262 258 254 244 241 235 236 239 240 240 241 244 233 215 214 213 211 202 207 213 220 224 222
287 280 276 274 275 276 276 276 276 275 273 272 272 271 266 262 263 269 269 268 269 270 268 259 249 247 244 237 236 236 241 242 239 237 236 224 216 206 214 205 203 209 211 218 221
308 302 297 292 287 285 283 282 281 280 278 274 271 270 269 265 262 263 267 270 274 274 274 261 254 244 242 241 234 233 240 241 238 242 233 223 214 202 213 209 207 214 211 208 218
318 314 310 304 297 294 292 292 292 289 283 279 275 271 269 266 263 263 264 267 271 272 276 274 264 245 237 240 230 232 236 237 234 245 244 236 221 211 205 209 209 213 214 207 213
311 308 306 307 309 312 309 301 302 297 292 288 279 271 267 266 265 262 265 265 267 272 270 268 257 250 238 237 229 233 237 242 244 246 248 246 236 224 211 207 213 212 215 212 211
305 292 288 288 290 292 297 304 308 310 300 293 287 276 265 261 262 265 265 263 266 265 265 260 253 250 241 236 232 233 237 243 248 249 250 252 239 240 220 216 212 215 213 217 210
282 277 276 275 278 281 283 290 306 310 311 305 292 281 272 261 258 259 261 260 260 261 263 261 255 250 246 240 238 239 240 244 247 249 253 256 241 237 231 226 212 212 212 217 216
333 304 270 271 278 273 276 280 301 305 305 305 303 293 280 265 256 254 259 262 261 260 260 262 258 251 244 245 242 240 241 244 246 249 253 257 246 243 243 243 234 212 217 212 216
341 333 302 279 271 274 274 277 289 298 301 302 303 304 296 275 261 255 256 259 259 259 258 254 254 253 251 246 245 244 245 245 247 249 249 248 250 245 244 245 242 217 218 220 212
1 337 324 311 291 275 276 283 285 293 299 305 306 306 300 283 270 263 258 257 255 255 257 257 257 254 252 250 250 250 249 249 248 249 250 249 245 243 242 242 238 239 225 220 226
19 13 1 338 315 303 288 289 297 295 299 303 305 305 307 299 287 277 263 260 259 256 254 254 253 255 256 255 252 252 253 252 252 253 251 249 248 251 243 243 241 237 236 239 225
16 15 12 2 347 326 311 303 301 301 301 303 309 309 307 301 293 281 275 268 264 265 263 259 256 253 255 256 257 256 256 256 255 255 256 252 248 248 249 247 244 240 239 238 241
22 18 14 13 6 350 336 322 315 310 308 311 309 305 303 299 296 290 285 283 277 274 270 267 265 262 261 260 259 259 259 258 258 256 259 259 254 251 251 248 247 244 240 237 237
19 24 22 19 10 358 351 345 334 329 326 329 317 312 313 314 306 305 299 293 284 274 270 271 269 267 267 265 263 263 262 261 261 262 261 260 259 253 251 249 250 247 245 241 236
12 13 14 14 13 7 360 353 342 339 323 324 318 315 317 316 309 304 300 294 288 285 284 278 272 269 264 264 265 265 266 267 265 266 262 263 262 259 256 254 251 251 251 249 241
5 6 8 8 6 3 358 353 344 338 330 324 318 315 315 311 308 305 297 291 283 280 279 264 269 267 264 265 266 267 266 266 267 267 267 271 269 255 261 262 260 252 249 249 249
1 0 358 357 0 359 355 352 347 344 341 336 330 326 321 318 319 317 309 299 288 279 272 264 264 266 259 259 265 273 279 279 276 280 284 287 273 265 268 266 264 258 254 249 248
355 356 354 354 351 346 347 348 347 344 340 336 333 330 329 328 326 321 311 302 294 285 282 270 259 270 259 263 272 278 286 292 292 297 294 297 292 277 273 270 267 261 256 252 249
345 348 347 348 345 341 341 340 339 337 335 335 332 331 328 327 325 319 313 307 304 299 289 289 277 278 255 268 276 282 291 296 298 297 298 301 304 295 288 272 266 258 257 254 249
337 338 342 341 342 342 338 333 329 327 330 329 328 328 329 326 326 324 318 313 307 300 295 288 284 274 250 264 272 284 294 303 302 301 299 302 303 306 282 267 261 280 262 271 264
329 332 335 336 338 336 332 327 323 323 323 323 325 325 326 324 326 324 321 310 309 302 291 285 285 273 249 258 267 280 295 306 308 307 303 304 309 306 276 281 265 276 272 268 268
324 325 327 330 332 334 331 328 322 317 316 316 318 321 322 322 323 321 315 310 310 304 295 288 284 274 258 265 273 281 292 300 309 310 303 302 322 319 288 278 272 274 270 264 271
321 319 319 321 325 329 328 327 324 316 310 310 312 314 319 319 318 317 311 306 307 303 298 293 281 275 256 265 272 277 288 297 301 304 315 299 317 313 283 268 265 273 269 263 280
316 316 314 314 313 320 323 324 326 324 316 308 309 309 311 313 313 316 308 305 305 303 296 294 286 279 256 259 263 272 279 292 295 300 306 308 313 319 290 275 272 275 281 276 279
313 314 311 311 309 315 322 323 327 329 321 313 309 306 306 307 304 308 306 306 302 298 297 293 288 276 255 257 263 269 276 283 294 302 302 315 304 323 285 280 272 276 280 284 298
312 310 307 305 309 314 315 320 322 327 323 315 310 308 306 304 302 302 298 300 299 290 294 293 289 276 260 254 263 271 276 285 292 295 302 303 316 304 314 310 306 288 281 291 306
310 308 308 308 309 312 312 315 319 323 324 317 315 315 312 305 303 300 295 292 296 291 286 290 296 288 249 252 261 276 273 281 288 289 294 297 309 304 306 317 316 303 299 297 305
Height
5738 5739 5740 5741 5742 5743 5744 5744 5745 5745 5745 5746 5746 5747 5748 5749 5750 5750 5751 5752 5752 5752 5754 5755 5758 5761 5764 5766 5771 5774 5775 5782 5789 5792 5788 5793 5803 5809 5814 5817 5823 5829 5834 5840 5843
5736 5736 5737 5738 5739 5739 5740 5741 5741 5740 5740 5740 5741 5741 5741 5742 5743 5744 5744 5744 5745 5745 5746 5747 5749 5752 5755 5759 5761 5764 5767 5775 5782 5778 5782 5792 5794 5801 5808 5812 5817 5822 5827 5833 5837
5734 5734 5735 5735 5735 5736 5736 5737 5737 5736 5736 5735 5735 5735 5735 5736 5737 5737 5738 5738 5738 5737 5738 5739 5740 5743 5746 5749 5752 5756 5760 5767 5773 5771 5777 5783 5785 5789 5799 5808 5813 5816 5821 5824 5830
5732 5733 5733 5733 5733 5733 5734 5734 5733 5732 5731 5730 5730 5730 5730 5730 5732 5731 5731 5732 5732 5732 5732 5731 5732 5734 5736 5739 5744 5748 5752 5757 5764 5767 5772 5775 5778 5781 5789 5800 5803 5807 5814 5818 5823
5731 5731 5731 5731 5731 5731 5731 5731 5730 5728 5727 5726 5725 5724 5724 5725 5725 5725 5726 5726 5726 5726 5726 5726 5727 5728 5728 5732 5737 5740 5744 5750 5757 5760 5762 5765 5770 5771 5781 5786 5793 5798 5801 5809 5815
5729 5729 5730 5729 5729 5729 5729 5729 5727 5725 5723 5722 5721 5720 5719 5720 5720 5720 5719 5720 5720 5721 5721 5721 5721 5722 5723 5726 5730 5733 5737 5741 5746 5750 5752 5755 5762 5766 5783 5774 5779 5788 5794 5800 5804
5728 5727 5727 5727 5727 5727 5727 5726 5724 5722 5720 5718 5716 5715 5714 5716 5715 5714 5713 5715 5715 5716 5716 5716 5716 5717 5719 5720 5724 5727 5731 5732 5737 5740 5741 5745 5753 5762 5765 5758 5764 5775 5783 5789 5792
5726 5725 5725 5724 5724 5724 5723 5723 5721 5720 5717 5715 5713 5711 5709 5709 5709 5707 5708 5709 5710 5710 5710 5711 5712 5713 5714 5716 5718 5721 5723 5726 5729 5732 5735 5737 5744 5751 5750 5750 5756 5766 5769 5776 5781
5725 5724 5722 5721 5720 5720 5720 5719 5718 5716 5715 5712 5710 5708 5706 5704 5703 5703 5703 5704 5704 5704 5705 5706 5707 5707 5709 5710 5712 5713 5715 5719 5722 5723 5727 5731 5734 5741 5743 5745 5748 5755 5761 5766 5769
5723 5722 5720 5719 5718 5717 5716 5715 5714 5713 5711 5710 5708 5707 5704 5701 5698 5699 5698 5697 5698 5698 5699 5700 5700 5700 5701 5703 5705 5706 5708 5710 5713 5716 5718 5723 5725 5729 5736 5738 5742 5745 5748 5754 5761
5724 5721 5718 5717 5715 5715 5714 5713 5713 5711 5708 5707 5705 5703 5700 5698 5695 5695 5693 5692 5691 5692 5693 5695 5696 5694 5693 5695 5697 5698 5699 5700 5703 5705 5709 5713 5717 5718 5725 5727 5732 5735 5738 5742 5751
5725 5721 5718 5715 5714 5712 5711 5710 5708 5708 5706 5703 5702 5699 5696 5693 5691 5689 5688 5688 5687 5686 5686 5687 5688 5688 5687 5688 5691 5692 5691 5692 5694 5695 5697 5701 5707 5709 5712 5717 5718 5723 5728 5734 5737
5727 5722 5719 5716 5714 5712 5710 5708 5706 5704 5702 5700 5697 5695 5693 5691 5688 5687 5686 5684 5683 5682 5681 5681 5681 5681 5682 5682 5682 5683 5682 5683 5684 5686 5687 5688 5694 5699 5702 5706 5707 5711 5717 5723 5725
5728 5724 5720 5717 5715 5712 5709 5706 5703 5700 5698 5696 5693 5690 5688 5688 5686 5684 5681 5681 5678 5677 5676 5676 5675 5675 5675 5676 5675 5675 5674 5674 5675 5675 5677 5679 5676 5685 5689 5694 5695 5698 5701 5707 5714
5730 5725 5721 5717 5715 5712 5709 5705 5702 5699 5696 5694 5690 5687 5685 5684 5682 5678 5677 5674 5672 5671 5673 5669 5669 5669 5668 5668 5667 5668 5667 5666 5667 5667 5667 5670 5667 5672 5675 5677 5681 5684 5685 5688 5696
5731 5726 5722 5717 5714 5711 5707 5703 5700 5698 5693 5691 5687 5684 5682 5679 5676 5675 5672 5670 5667 5665 5665 5664 5662 5661 5661 5660 5659 5659 5659 5658 5657 5658 5660 5659 5660 5665 5662 5663 5662 5666 5670 5671 5674
5732 5727 5722 5717 5713 5710 5706 5702 5699 5693 5690 5687 5683 5680 5677 5674 5670 5667 5664 5663 5661 5659 5660 5659 5656 5654 5654 5653 5651 5653 5652 5649 5650 5648 5649 5646 5648 5657 5649 5647 5646 5647 5649 5653 5657
5732 5727 5723 5717 5712 5708 5705 5701 5697 5692 5687 5683 5679 5674 5671 5668 5665 5661 5658 5655 5653 5652 5651 5651 5651 5649 5649 5647 5647 5647 5645 5642 5637 5637 5637 5636 5635 5638 5634 5632 5628 5627 5631 5634 5638
5731 5726 5721 5717 5712 5707 5703 5698 5694 5690 5686 5681 5676 5672 5668 5663 5660 5656 5651 5648 5646 5645 5644 5641 5643 5642 5642 5640 5639 5638 5638 5636 5632 5629 5625 5624 5621 5622 5617 5615 5608 5610 5611 5613 5618
5728 5724 5719 5714 5709 5704 5700 5695 5691 5687 5683 5678 5673 5669 5664 5659 5655 5650 5646 5643 5640 5638 5637 5635 5633 5635 5635 5634 5632 5631 5630 5628 5623 5618 5612 5614 5609 5607 5605 5602 5599 5599 5602 5602 5602
5725 5720 5716 5710 5706 5701 5697 5692 5687 5682 5678 5674 5669 5665 5660 5655 5650 5646 5643 5638 5635 5632 5630 5628 5627 5631 5629 5628 5627 5625 5622 5617 5613 5610 5603 5600 5602 5600 5598 5595 5593 5592 5591 5592 5592
5721 5717 5712 5707 5703 5697 5691 5687 5682 5677 5672 5668 5665 5660 5654 5649 5646 5641 5637 5632 5629 5626 5623 5621 5618 5620 5621 5620 5619 5617 5614 5610 5606 5604 5598 5594 5592 5591 5589 5587 5585 5583 5581 5582 5582
5717 5712 5707 5702 5698 5693 5687 5681 5676 5672 5667 5662 5657 5653 5649 5645 5640 5637 5631 5627 5623 5619 5615 5613 5611 5611 5613 5613 5612 5610 5608 5605 5600 5597 5593 5587 5585 5583 5581 5578 5576 5575 5573 5572 5570
5712 5706 5701 5697 5692 5689 5683 5677 5671 5665 5661 5655 5651 5646 5642 5638 5634 5631 5626 5621 5616 5612 5608 5604 5604 5604 5605 5606 5604 5604 5603 5599 5594 5591 5586 5582 5575 5578 5574 5569 5567 5566 5564 5561 5558
5707 5702 5694 5688 5684 5679 5676 5670 5665 5658 5652 5647 5644 5639 5635 5631 5626 5622 5618 5614 5609 5604 5601 5597 5596 5595 5596 5598 5596 5596 5597 5594 5589 5586 5578 5577 5572 5568 5564 5561 5560 5558 5554 5551 5547
5700 5695 5689 5681 5676 5673 5667 5663 5657 5652 5646 5641 5634 5630 5626 5622 5617 5615 5609 5605 5602 5598 5592 5590 5588 5586 5588 5589 5588 5588 5589 5585 5583 5580 5574 5570 5567 5562 5558 5555 5551 5548 5544 5543 5538
5693 5688 5682 5675 5669 5666 5661 5656 5650 5644 5640 5632 5626 5622 5618 5612 5607 5603 5598 5595 5593 5590 5586 5581 5579 5578 5579 5580 5578 5582 5581 5578 5576 5573 5569 5566 5563 5557 5554 5550 5547 5543 5538 5533 5530